Home   Weather   France   Lens   Past weeks
Flag for France

Past Weather in Lens, Pas-de-Calais, France — Yesterday and Last 2 Weeks

Currently: 45 °F. More clouds than sun. (Weather station: Lille Airport, France). See more current weather

Past Weather in Lens — Graph

°F

Lens Temperature Yesterday

Maximum temperature yesterday: 52 °F (at 12:30 pm)
Minimum temperature yesterday: 45 °F (at 8:00 am)
Average temperature yesterday: 48 °F

High & Low Weather Summary for the Past Weeks

 TemperatureHumidityPressure
High54 °F (Feb 3, 2:30 pm)100% (Jan 22, 4:00 am)30.72 "Hg (Jan 22, 4:00 am)
Low27 °F (Jan 22, 4:00 am)62% (Jan 30, 2:00 pm)30.12 "Hg (Jan 30, 4:00 am)
Average40 °F85%30.42 "Hg
* Reported Jan 21 8:00 am — Feb 5 8:30 am, Lens. Weather by CustomWeather, © 2023

Note: Actual official high and low records may vary slightly from our data, if they occured in-between our weather recording intervals... More about our weather records

Lens Weather History for the Previous 24 Hours

Scroll right to see more
 ConditionsComfort  
Time TempWeatherWind HumidityBarometerVisibility
8:30 am
Sun, Feb 5
45 °FMostly cloudy.15 mph81%30.72 "HgN/A
8:00 am45 °FMostly cloudy.15 mph87%30.72 "HgN/A
7:00 am45 °FMostly cloudy.17 mph93%30.69 "Hg5 mi
6:30 am45 °FLight rain. Fog.10 mph93%30.69 "Hg3 mi
6:00 am45 °FDrizzle. Mostly cloudy.10 mph93%30.69 "Hg4 mi
5:30 am45 °FMostly cloudy.10 mph87%30.66 "HgN/A
5:00 am45 °FPartly cloudy.9 mph87%30.66 "HgN/A
4:30 am45 °FOvercast.8 mph81%30.66 "HgN/A
4:00 am45 °FMostly cloudy.8 mph87%30.66 "HgN/A
3:30 am45 °FMostly cloudy.8 mph87%30.69 "HgN/A
3:00 am45 °FOvercast.7 mph87%30.66 "HgN/A
2:30 am43 °FClear.6 mph93%30.66 "Hg10 mi
2:00 am43 °FClear.6 mph93%30.66 "Hg10 mi
12:30 am46 °FOvercast.5 mph82%30.69 "HgN/A
12:00 am46 °FOvercast.6 mph87%30.69 "HgN/A
11:00 pm
Sat, Feb 4
46 °FOvercast.7 mph87%30.69 "HgN/A
10:30 pm46 °FOvercast.7 mph87%30.69 "HgN/A
10:00 pm46 °FOvercast.7 mph87%30.69 "HgN/A
9:30 pm46 °FOvercast.6 mph93%30.69 "HgN/A
9:00 pm46 °FOvercast.7 mph93%30.69 "HgN/A
8:30 pm48 °FOvercast.8 mph87%30.69 "HgN/A
8:00 pm48 °FOvercast.7 mph87%30.66 "HgN/A
7:30 pm48 °FOvercast.8 mph87%30.66 "HgN/A
7:00 pm48 °FOvercast.6 mph87%30.66 "HgN/A
6:30 pm48 °FOvercast.6 mph87%30.66 "HgN/A
6:00 pm48 °FOvercast.7 mph87%30.66 "HgN/A
5:00 pm50 °FOvercast.7 mph76%30.63 "HgN/A
4:30 pm50 °FOvercast.6 mph76%30.63 "HgN/A
4:00 pm50 °FOvercast.7 mph76%30.63 "HgN/A
3:30 pm50 °FOvercast.8 mph76%30.63 "HgN/A
3:00 pm50 °FOvercast.7 mph82%30.63 "HgN/A
2:30 pm52 °FOvercast.8 mph77%30.63 "HgN/A
2:00 pm52 °FOvercast.7 mph77%30.63 "HgN/A
1:00 pm52 °FOvercast.7 mph77%30.63 "HgN/A
12:30 pm52 °FOvercast.7 mph77%30.63 "HgN/A
12:00 pm50 °FOvercast.8 mph88%30.63 "HgN/A
11:00 am50 °FOvercast.6 mph88%30.63 "HgN/A
10:30 am48 °FOvercast.5 mph94%30.63 "HgN/A
10:00 am48 °FOvercast.7 mph94%30.60 "HgN/A
Weather by CustomWeather, © 2023

See weather overview